Columbia Airport, CA

7:51 AM PST on December 14, 2019 (GMT -0800)
Columbia Airport

Weather History for KO22 - October, 2019

Change the Weather History Date:

Thursday, October 10, 2019

  Actual Average (KMOD) Record (KMOD)
Temperature  
Mean Temperature 60 °F -  
Max Temperature 71 °F 81 °F 101 °F (1991)
Min Temperature 48 °F 52 °F 38 °F (1961)
Degree Days  
Heating Degree Days 6    
Growing Degree Days 10 (Base 50)    
Moisture  
Dew Point 35 °F    
Average Humidity 42    
Maximum Humidity 62    
Minimum Humidity 23    
Precipitation  
Precipitation 0.00 in - - ()
Sea Level Pressure  
Sea Level Pressure 30.03 in    
Wind  
Wind Speed 1 mph (SW)    
Max Wind Speed 7 mph    
Max Gust Speed -    
Visibility 10 miles    
Events      
Averages and records for this station are not official NWS values.
T = Trace of Precipitation, MM = Missing Value Source: NWS Daily Summary

Daily Weather History Graph

Daily Weather History Graph

Search for Another Location

Airport or City:

Astronomy

Oct. 10, 2019 Rise Set
Actual Time 7:05 AM PDT 6:31 PM PDT
Civil Twilight 6:39 AM PDT 6:57 PM PDT
Nautical Twilight 6:08 AM PDT 7:28 PM PDT
Astronomical Twilight 5:37 AM PDT 7:58 PM PDT
Moon 5:31 PM PDT (10/10) 3:58 AM PDT (10/10)
Length of Visible Light 12h 18m
Length of Day
11h 25m
Waxing Gibbous, 91% of the Moon is Illuminated
Oct 10
Waxing Gibbous
Oct 13
Full
Oct 21
Last Quarter
Oct 27
New
Nov 4
First Quarter

Hourly Weather History & Observations

Time (PDT) Temp. Dew Point Humidity Pressure Visibility Wind Dir Wind Speed Gust Speed Precip Events Conditions
3:15 PM 71.6 °F 32.0 °F 23% 30.01 in - Calm Calm - N/A   Unknown
3:35 PM 71.6 °F 32.0 °F 23% 30.00 in 10.0 mi Calm Calm - N/A   Unknown
3:55 PM 71.6 °F 32.0 °F 23% 30.01 in 10.0 mi SSW 3.5 mph - N/A   Clear
4:15 PM 71.6 °F 32.0 °F 23% 30.00 in 10.0 mi Variable 6.9 mph - N/A   Clear
4:35 PM 71.6 °F 32.0 °F 23% 30.00 in 10.0 mi Variable 4.6 mph - N/A   Clear
4:55 PM 71.6 °F 32.0 °F 23% 30.01 in 10.0 mi SW 5.8 mph - N/A   Clear
5:15 PM 69.8 °F 32.0 °F 25% 30.01 in 10.0 mi SSW 3.5 mph - N/A   Clear
5:35 PM 69.8 °F 32.0 °F 25% 30.01 in 10.0 mi Calm Calm - N/A   Clear
5:55 PM 68.0 °F 32.0 °F 26% 30.01 in 10.0 mi Calm Calm - N/A   Clear
6:15 PM 66.2 °F 35.6 °F 32% 30.01 in 10.0 mi North - - N/A   Clear
6:35 PM 62.6 °F 35.6 °F 37% 30.01 in 10.0 mi Calm Calm - N/A   Clear
6:55 PM 59.0 °F 37.4 °F 45% 30.01 in 10.0 mi Calm Calm - N/A   Partly Cloudy
7:15 PM 59.0 °F 37.4 °F 45% 30.01 in 10.0 mi Calm Calm - N/A   Scattered Clouds
7:35 PM 57.2 °F 37.4 °F 48% 30.02 in 10.0 mi Calm Calm - N/A   Mostly Cloudy
7:55 PM 55.4 °F 37.4 °F 51% 30.02 in 10.0 mi Calm Calm - N/A   Mostly Cloudy
8:15 PM 55.4 °F 37.4 °F 51% 30.03 in 10.0 mi Calm Calm - N/A   Overcast
8:35 PM 53.6 °F 37.4 °F 54% 30.03 in 10.0 mi Calm Calm - N/A   Overcast
8:55 PM 51.8 °F 35.6 °F 54% 30.04 in 10.0 mi North - - N/A   Overcast
9:15 PM 53.6 °F 35.6 °F 51% 30.04 in 10.0 mi Calm Calm - N/A   Mostly Cloudy
9:35 PM 51.8 °F 35.6 °F 54% 30.04 in 10.0 mi Calm Calm - N/A   Overcast
10:15 PM 50.0 °F 35.6 °F 58% 30.05 in 10.0 mi North - - N/A   Overcast
10:35 PM 50.0 °F 35.6 °F 58% 30.05 in 10.0 mi Calm Calm - N/A   Overcast
10:55 PM 50.0 °F 35.6 °F 58% 30.06 in 10.0 mi Calm Calm - N/A   Overcast
11:15 PM 48.2 °F 35.6 °F 62% 30.06 in 10.0 mi Calm Calm - N/A   Overcast
11:35 PM 48.2 °F 35.6 °F 62% 30.06 in 10.0 mi Calm Calm - N/A   Overcast
11:55 PM 48.2 °F 35.6 °F 62% 30.06 in 10.0 mi Calm Calm - N/A   Overcast